Regional Weather Roundup
Issued by NWS Charleston, WV

Home | Current Version | Previous Version | Graphics & Text | Print | Product List | Glossary On
Versions: 1 2 3 4 5 6 7 8 9 10 11 12 13 14 15 16 17 18 19 20 21 22 23 24 25 26 27 28 29 30 31 32 33 34 35 36 37 38 39 40 41 42 43 44 45 46 47 48 49 50
000
ASUS41 KRLX 260910
RWRRLX
West Virginia Regional Weather Roundup
National Weather Service Charleston WV
500 AM EDT SUN APR 26 2015

Note: "fair" indicates few or no clouds below 12,000 feet with no
significant weather and/or obstructions to visibility.

WVZ003-261000-
Northern Panhandle of West Virginia

CITY           SKY/WX    TMP DP  RH WIND       PRES   REMARKS
WHEELING       CLOUDY    43  28  55 NE10      29.67F
$$

WVZ009-261000-
Northwest West Virginia

CITY           SKY/WX    TMP DP  RH WIND       PRES   REMARKS
PARKERSBURG    MOCLDY    42  39  89 N6        29.67F
$$

WVZ006-261000-
Western West Virginia

CITY           SKY/WX    TMP DP  RH WIND       PRES   REMARKS
HUNTINGTON     LGT RAIN  42  42 100 N5        29.66R
$$

WVZ015-261000-
West Central West Virginia

CITY           SKY/WX    TMP DP  RH WIND       PRES   REMARKS
CHARLESTON     LGT RAIN  44  42  93 N6        29.64R
$$

WVZ022-031-261000-
North Central West Virginia

CITY           SKY/WX    TMP DP  RH WIND       PRES   REMARKS
CLARKSBURG     CLOUDY    42  37  82 N6        29.63S
MORGANTOWN     CLOUDY    42  35  76 N6        29.66S
$$

WVZ025-035-042-045-261000-
Southern West Virginia

CITY           SKY/WX    TMP DP  RH WIND       PRES   REMARKS
BECKLEY        LGT RAIN  43  41  93 NE3       29.58R
LOGAN          LGT RAIN  45  45 100 VRB5      29.58R
BLUEFIELD      CLOUDY    47  43  86 E3        29.57R FOG
LEWISBURG      NOT AVBL
$$

WVZ047-261000-
Northern Mountains of West Virginia

CITY           SKY/WX    TMP DP  RH WIND       PRES   REMARKS
ELKINS         CLOUDY    42  38  85 CALM      29.61S
$$

WVZ052-261000-
Eastern Panhandle of West Virginia

CITY           SKY/WX    TMP DP  RH WIND       PRES   REMARKS
MARTINSBURG    CLOUDY    41  38  89 CALM      29.69F
PETERSBURG     CLOUDY    38  34  84 CALM      29.69S
$$



USA.gov is the U.S. government's official web portal to all federal, state and local government web resources and services.